RH
28 31 59 82 79 62 54 64 66 45 44 54 45 39 38 36 43 48 43 40 39 38 37 39 34 34 39 34 32 29 22 22 29 33 34 32 34 42 49 42 39 40 38 37
40 29 30 64 80 86 82 61 67 81 60 48 51 47 40 39 37 38 46 49 45 43 41 40 42 41 42 39 41 39 38 35 31 28 23 23 30 34 33 35 39 37 39 38
37 34 27 31 46 83 78 92 70 69 87 96 76 67 58 48 38 43 43 43 54 57 52 48 44 44 43 47 41 40 40 42 40 40 36 30 26 21 23 34 36 35 36 41
33 35 33 27 24 32 57 93 86 94 70 77 99 96 84 74 64 46 40 50 54 72 63 58 59 45 48 47 50 53 52 46 49 50 46 42 38 35 29 24 20 25 35 41
36 37 35 38 30 27 34 41 69 80 98 83 79 93 100 100 78 68 58 64 54 59 86 68 63 71 68 52 52 51 55 54 49 49 52 50 41 41 37 39 41 36 29 25
35 39 36 33 34 28 30 35 43 53 87 95 72 80 100 100 100 89 69 52 57 86 74 64 62 80 68 67 66 64 57 56 48 49 52 56 58 52 48 49 44 41 39 38
35 34 36 32 33 32 27 34 48 56 61 80 100 76 66 98 100 100 92 72 58 60 99 79 78 59 87 84 73 69 63 53 51 49 49 52 58 58 62 65 62 51 47 45
34 34 33 30 29 32 30 31 30 59 51 68 79 100 85 73 94 100 98 92 78 67 68 97 98 95 69 88 94 93 80 66 51 51 52 48 56 60 58 53 59 63 63 40
35 34 32 30 28 27 28 28 39 38 81 72 65 76 100 95 85 83 99 99 100 90 68 100 68 96 100 86 90 86 97 72 62 51 59 64 52 56 65 66 62 56 56 67
38 29 29 28 25 24 24 28 34 39 44 89 74 67 93 100 100 100 75 100 100 100 98 88 95 97 100 100 100 100 64 71 57 50 50 60 62 66 63 72 66 67 64 56
38 32 30 29 25 24 21 23 30 34 41 46 80 81 73 71 98 100 99 80 100 100 100 96 95 81 100 94 90 100 73 75 59 59 53 54 55 56 68 58 65 64 61 61
36 32 30 25 26 25 30 33 27 27 33 35 65 83 87 96 70 96 100 71 96 100 100 100 100 83 100 97 77 100 88 87 72 77 74 71 78 59 63 64 61 64 68 65
34 31 30 29 36 67 81 90 79 73 34 33 34 78 92 95 79 88 99 77 76 100 100 100 100 100 100 100 100 93 86 93 91 88 88 71 82 82 85 75 83 73 64 74
60 49 78 100 100 100 100 100 100 100 97 86 72 59 90 100 97 95 100 100 92 100 100 100 100 100 100 100 100 100 82 86 92 85 78 88 76 77 85 89 98 100 97 80
100 96 100 100 100 100 100 93 98 100 100 98 100 100 100 100 100 100 100 100 100 100 96 98 100 100 100 100 100 100 100 100 85 87 66 74 95 80 93 96 98 100 100 98
100 100 100 100 98 99 100 100 100 97 93 93 93 100 100 100 100 100 100 100 100 100 100 100 100 100 100 100 100 100 100 87 78 95 74 87 82 86 93 100 100 100 100 94
100 100 100 100 100 100 100 100 99 100 96 90 74 68 100 100 100 100 100 100 100 100 100 100 100 100 100 100 100 100 100 100 96 70 83 88 81 100 99 100 100 100 100 100
100 100 100 100 100 100 99 92 93 100 100 100 91 76 90 100 100 100 100 100 100 100 100 100 100 100 100 100 100 100 100 95 94 90 80 99 100 94 95 100 100 100 100 100
100 100 99 94 94 86 88 87 84 73 78 96 91 77 72 87 100 100 100 99 98 100 100 100 100 100 100 100 100 97 92 98 90 88 85 84 98 100 100 100 100 100 100 100
91 100 100 100 85 87 87 74 62 57 63 64 67 55 49 55 70 72 82 89 100 100 94 100 100 100 100 100 100 100 100 99 90 89 88 97 100 100 100 100 100 100 100 100
73 89 99 88 80 76 71 69 61 58 63 65 92 80 83 72 54 49 50 49 56 63 83 98 92 100 100 100 100 97 93 100 100 100 100 100 100 100 100 100 100 100 100 100
62 76 82 97 100 98 92 96 93 86 82 79 73 59 54 67 87 88 72 66 69 68 62 68 81 100 100 100 100 100 100 100 100 100 99 100 100 100 100 100 100 100 98 98
86 73 80 88 88 91 84 100 100 96 82 84 78 80 84 75 72 59 52 40 39 42 42 62 83 84 85 81 69 69 75 74 77 82 92 97 100 99 100 95 95 92 79 72
95 69 63 69 72 87 98 91 96 95 95 92 81 77 74 71 67 62 56 50 49 37 36 53 65 50 38 40 38 40 41 49 53 64 58 59 71 88 87 77 62 63 60 54
43 66 64 62 82 67 69 76 92 96 89 68 61 56 61 71 68 63 58 51 45 41 59 47 22 17 22 25 25 34 34 33 37 45 45 50 55 40 24 26 26 28 23 20
26 22 24 41 54 62 70 59 73 78 69 67 64 61 51 61 44 28 30 32 32 35 17 12 12 13 14 13 14 18 29 32 29 29 32 27 28 22 16 16 14 13 12 12
15 15 18 18 18 23 28 34 35 28 29 32 30 22 20 18 14 14 17 20 17 12 10 10 11 11 12 13 18 19 17 23 20 16 16 13 12 12 11 11 12 11 9 8
Wind_Speed
37 34 30 31 33 38 40 42 45 50 52 53 55 60 62 65 68 71 74 75 78 78 79 82 80 73 69 66 59 56 51 49 45 41 36 31 26 18 11 8 7 5 5 6
33 35 36 27 30 31 32 37 36 39 46 48 48 50 55 58 60 63 65 67 70 71 74 76 75 77 78 73 68 61 58 55 50 47 43 39 34 31 29 22 16 12 10 8
30 36 36 34 29 29 29 29 32 33 32 37 44 42 44 48 52 55 58 60 62 65 68 69 72 73 72 73 72 68 64 60 52 52 48 43 39 38 33 28 26 22 20 19
34 33 34 36 36 31 29 27 28 27 31 30 29 35 40 40 41 46 49 52 56 58 61 64 64 67 67 67 69 68 67 67 60 54 49 46 41 42 38 35 33 29 25 23
36 37 35 31 34 33 29 29 24 25 25 27 26 27 29 35 36 39 39 41 46 51 51 55 59 61 62 65 66 67 66 66 62 58 55 51 47 44 39 36 33 30 30 30
42 38 39 36 33 34 31 30 26 23 23 23 24 24 25 29 33 35 35 37 38 39 43 45 51 54 57 59 60 61 63 63 66 61 57 54 52 49 47 43 40 34 34 31
45 42 41 39 36 34 32 29 29 28 25 23 23 22 24 23 30 33 35 35 37 38 33 37 44 49 51 52 55 57 58 60 59 61 60 58 53 50 49 45 44 37 38 32
51 48 47 44 44 37 35 32 29 29 26 23 22 23 22 24 24 30 31 34 36 40 33 34 37 43 48 45 49 51 53 57 57 59 58 58 57 55 50 46 46 44 44 41
55 52 51 48 49 42 36 34 32 30 28 27 25 25 25 25 27 29 32 33 34 35 37 26 35 34 43 47 43 47 49 52 53 55 55 58 58 57 56 56 52 47 45 44
57 57 53 50 51 49 39 36 35 34 32 30 30 27 27 31 30 29 31 36 39 37 36 32 36 30 37 42 42 39 48 50 50 52 56 55 56 56 55 55 56 55 53 46
58 56 55 53 50 46 44 40 38 36 35 33 33 32 32 28 32 35 36 30 35 39 36 37 35 36 34 39 44 40 44 45 53 53 53 55 53 54 55 57 56 55 54 53
59 57 55 53 48 45 41 42 40 38 40 37 38 34 35 35 30 32 37 34 33 41 41 38 38 37 37 42 49 47 49 48 56 58 56 56 55 55 51 54 57 58 58 57
56 57 54 49 42 36 34 34 34 34 38 42 35 40 37 36 35 34 38 38 33 34 42 45 43 47 39 43 43 52 54 52 53 54 59 59 60 60 58 59 61 61 61 60
50 48 45 40 36 33 33 34 34 33 30 35 37 39 40 41 42 39 42 43 39 36 39 48 51 51 49 50 52 50 57 56 56 52 56 58 67 65 64 64 63 64 67 63
49 49 48 47 42 41 42 42 43 38 33 30 32 38 39 43 46 49 48 52 46 43 45 41 51 53 54 53 56 56 59 61 59 55 60 56 60 65 70 68 68 68 69 70
57 56 56 55 54 48 47 47 52 50 44 40 40 41 44 48 49 52 48 52 60 59 54 53 57 60 57 55 58 65 64 65 68 67 68 68 68 68 67 67 73 73 72 73
72 70 65 62 61 60 57 56 62 57 51 48 50 47 46 55 55 59 61 58 58 61 62 61 65 69 66 65 64 63 69 72 73 73 72 74 75 73 74 74 75 77 78 78
82 81 79 74 70 67 69 67 66 63 63 56 54 47 47 57 59 66 68 68 69 68 66 65 71 72 73 72 73 71 75 76 78 82 82 79 79 80 78 79 81 83 81 80
90 91 90 85 81 81 82 84 77 71 70 68 63 63 69 66 70 73 72 73 75 73 74 79 78 72 74 87 82 80 81 82 84 86 89 87 85 85 85 86 87 86 88 89
97 95 97 96 92 91 90 87 85 86 84 80 79 81 80 82 83 82 83 82 82 80 79 85 84 79 88 90 83 85 89 90 92 92 95 94 92 92 94 92 91 92 92 93
107 104 101 101 98 97 97 93 92 91 88 89 89 95 97 98 95 96 95 92 91 85 82 86 86 81 99 93 92 91 93 96 101 100 99 98 97 99 101 101 102 102 104 103
112 110 110 108 107 106 106 105 105 102 105 101 100 100 101 103 108 109 106 107 107 102 96 94 91 99 105 96 95 98 101 104 105 106 107 106 106 107 107 109 111 110 112 111
121 120 118 114 113 112 109 109 110 113 113 110 111 111 112 112 113 118 119 117 114 111 105 107 117 120 107 105 107 110 111 112 114 115 112 111 113 114 114 113 114 115 116 115
129 129 124 118 114 111 115 117 119 120 120 120 122 120 120 122 124 126 127 126 124 118 115 119 126 118 109 111 116 117 118 116 117 119 121 120 118 116 120 122 119 119 119 113
134 135 128 120 117 120 121 124 127 131 133 132 131 128 127 130 132 134 135 133 129 124 128 134 120 114 115 114 112 116 116 117 117 119 119 119 120 117 110 107 107 111 114 110
134 129 121 120 122 124 128 131 133 134 136 135 134 136 135 135 134 132 128 130 128 128 126 121 115 111 110 110 110 110 112 113 113 115 115 113 113 116 112 106 108 109 105 101
135 122 120 119 121 124 128 131 131 133 135 136 134 132 131 132 126 121 123 122 128 127 123 118 115 114 115 114 111 111 115 116 114 110 111 110 109 109 107 103 103 103 99 92
Wind_Direction
11 16 19 17 19 23 35 36 34 39 44 49 46 44 45 45 48 48 49 50 50 50 49 47 50 49 50 51 51 49 47 46 47 49 49 44 39 32 26 22 21 330 305 287
360 9 7 12 8 8 12 27 32 32 33 38 43 43 42 42 44 44 46 47 46 47 46 49 48 49 48 45 45 45 47 46 43 42 39 39 40 41 41 35 15 6 338 307
347 353 357 358 2 357 1 2 20 24 30 25 30 36 39 39 40 42 40 42 42 41 41 41 42 45 45 44 46 45 43 40 41 41 40 37 35 34 30 28 29 27 17 4
333 338 342 349 351 354 350 345 356 3 12 20 25 24 27 30 31 34 39 37 37 38 35 33 35 36 37 39 38 38 39 40 41 38 33 32 36 33 30 25 21 15 7 4
320 325 332 338 342 345 346 349 341 346 349 356 12 15 19 21 20 22 27 34 34 33 28 28 28 29 30 31 31 32 33 34 34 34 34 34 31 30 38 33 28 19 7 359
311 314 320 323 327 333 334 337 341 343 334 337 353 2 358 3 10 11 12 24 29 29 25 25 23 23 24 24 25 27 26 25 27 30 30 31 33 27 28 28 28 25 20 10
299 303 307 311 314 319 321 324 324 323 332 322 324 343 354 347 347 353 0 5 13 22 17 14 15 19 16 18 19 20 20 20 19 22 24 25 26 28 28 19 15 17 19 17
291 294 299 301 304 306 308 309 313 307 313 320 310 312 329 342 337 332 335 350 354 4 10 0 358 6 13 14 12 13 13 11 13 13 14 18 19 21 21 20 20 14 8 1
287 287 289 292 295 295 296 296 296 300 296 299 313 302 300 315 322 333 320 323 342 346 355 355 0 356 1 3 12 9 5 8 5 5 9 8 10 12 13 13 14 11 13 8
279 283 283 284 288 292 286 285 284 288 290 290 294 307 295 295 307 309 325 312 318 329 335 354 347 350 339 354 2 2 6 358 1 4 0 2 2 4 5 5 4 7 8 6
273 276 278 280 282 283 285 283 279 281 283 284 283 291 292 305 290 298 310 312 312 311 326 331 335 344 346 345 348 350 358 357 354 357 0 355 356 358 357 358 358 357 359 0
268 272 275 278 279 283 283 284 283 280 281 285 280 285 288 287 295 285 293 303 300 302 303 318 322 330 331 334 337 338 340 352 349 351 349 351 350 352 350 350 350 351 350 350
272 275 276 278 280 277 277 280 283 286 285 283 291 279 285 285 287 289 282 300 290 290 295 298 307 316 320 323 328 327 330 337 341 342 334 344 341 344 345 343 342 345 344 342
269 268 271 272 272 269 274 276 281 283 284 290 291 283 281 283 288 286 280 289 294 287 287 294 295 305 311 316 323 316 322 328 330 333 328 337 330 334 338 339 339 336 336 336
266 266 266 268 265 268 272 276 278 277 277 283 294 293 295 290 287 290 285 282 286 285 294 293 290 297 306 310 315 309 315 319 321 322 324 329 322 327 327 329 332 334 331 329
264 263 263 266 267 266 268 272 274 274 275 275 278 292 295 294 289 284 286 282 278 284 291 294 295 296 300 307 303 302 311 312 316 317 320 321 318 321 321 321 323 325 326 326
267 265 266 268 269 267 266 265 269 272 277 279 279 278 283 291 291 288 290 288 285 285 288 292 293 292 298 303 299 302 301 303 306 309 313 313 315 315 316 316 317 318 317 319
265 265 265 265 267 270 269 266 266 270 270 271 275 276 280 281 281 284 287 288 288 287 289 288 290 292 294 295 295 296 296 299 300 304 306 306 307 308 311 311 311 312 311 311
264 264 264 263 267 268 266 267 266 268 269 269 269 270 270 274 277 280 283 286 285 285 287 288 289 291 289 282 288 294 298 297 299 299 298 300 300 302 303 304 305 305 305 305
260 262 265 267 266 267 268 270 272 271 270 275 275 274 269 266 268 272 277 281 287 289 284 282 286 292 286 283 281 284 292 292 293 294 295 298 298 298 298 298 298 299 301 300
259 259 261 263 262 266 266 269 272 272 274 275 275 276 275 276 274 271 271 273 276 280 285 287 285 280 277 279 282 285 286 284 285 289 291 293 293 293 294 295 295 295 295 295
257 257 257 259 261 264 265 267 270 271 273 274 272 271 273 275 276 276 276 279 280 281 280 283 287 277 273 274 277 279 280 279 279 281 283 285 286 287 288 290 291 291 292 293
257 258 257 257 259 262 264 268 268 269 270 272 273 272 273 275 276 275 274 275 277 277 280 284 286 281 280 274 274 274 275 276 278 279 280 281 282 283 284 286 288 289 290 290
256 256 255 256 259 261 263 265 266 267 267 269 272 272 273 275 275 276 278 277 278 279 280 281 281 279 277 276 275 276 278 278 278 277 280 281 281 282 283 285 288 288 287 288
255 255 256 258 261 262 261 261 263 266 267 268 269 270 271 273 275 277 278 280 280 282 283 281 280 280 277 277 276 277 280 280 280 280 281 282 283 285 288 288 288 287 288 289
257 258 260 261 260 261 262 263 263 264 265 266 267 270 272 273 273 274 276 278 280 280 280 282 283 283 283 284 282 281 281 281 282 283 284 286 285 286 288 288 289 290 291 291
258 260 261 262 262 263 263 264 265 266 267 269 269 270 271 271 273 276 278 279 278 279 282 284 285 286 286 285 284 283 283 282 282 282 283 284 284 285 287 287 288 290 292 291